Location: ???????????
(38.2661°N, 23.2350°E)
Time: 01:22:21
(UTC+00:00)

CSL-04 Debris - Pass Details

Date: 25 September 2023
Orbit: 824 x 844 km, 98.8° (Epoch: 08 December)

Event Time Altitude Azimuth Distance (km) Brightness Sun altitude
Exits shadow 18:38:48 48° 197° (SSW) 1,093 4.6 -27.5°
Maximum altitude 18:40:14 66° 258° (WSW) 912 4.4 -27.7°
Drops below altitude 10° 18:45:39 10° 341° (NNW) 2,456 7.1 -28.7°
Sets 18:48:02 0° 344° (NNW) 3,391 7.9 -29.1°
